DW4535 Weather Reports


Display with metric or nautical units.
time (UTC)temp
F
wind
direction
speed
MPH
gust
MPH
rain 1hr
in
rain 24hr
in
rain mn
in
humidity
%
barometer
mb
20180424204908 65 342 0.0 0.0 0.00 0.00 0.00 42 1016.6
20180424203411 65 327 0.0 0.0 0.00 0.00 0.00 43 1016.9
20180424201906 65 258 0.0 0.0 0.00 0.00 0.00 43 1016.8
20180424200402 66 153 0.0 0.0 0.00 0.00 0.00 40 1016.9
20180424194901 77 172 0.0 0.0 0.00 0.00 0.00 24 1016.9
20180424193359 77 96 0.0 0.0 0.00 0.00 0.00 20 1016.9
20180424191900 76 124 0.0 0.0 0.00 0.00 0.00 21 1017.1
20180424190356 75 86 0.0 0.0 0.00 0.00 0.00 21 1017.2
20180424184856 75 85 0.0 0.0 0.00 0.00 0.00 21 1017.3
20180424183349 74 63 0.0 0.0 0.00 0.00 0.00 22 1017.3
20180424181847 73 115 0.0 0.0 0.00 0.00 0.00 21 1017.5
20180424180345 73 139 0.0 0.0 0.00 0.00 0.00 22 1017.6
20180424174842 72 122 0.0 0.0 0.00 0.00 0.00 23 1017.5
20180424173343 71 115 0.0 0.0 0.00 0.00 0.00 23 1017.4
20180424171838 71 91 0.0 0.0 0.00 0.00 0.00 23 1017.4
20180424170336 70 79 0.0 0.0 0.00 0.00 0.00 24 1017.4
20180424164833 70 68 0.0 0.0 0.00 0.00 0.00 24 1017.4
20180424163334 69 96 0.0 0.0 0.00 0.00 0.00 25 1017.5
20180424161831 68 112 0.0 0.0 0.00 0.00 0.00 26 1017.6
20180424160325 68 68 0.0 0.0 0.00 0.00 0.00 26 1017.4
20180424154823 67 80 0.0 0.0 0.00 0.00 0.00 26 1017.6
20180424153322 67 84 0.0 0.0 0.00 0.00 0.00 27 1017.5
20180424151820 66 92 0.0 0.0 0.00 0.00 0.00 27 1017.6
20180424150319 66 98 0.0 0.0 0.00 0.00 0.00 27 1017.7
20180424144817 65 136 0.0 0.0 0.00 0.00 0.00 27 1017.8
20180424143317 65 92 0.0 0.0 0.00 0.00 0.00 27 1017.7
20180424141813 65 90 0.0 0.0 0.00 0.00 0.00 27 1017.6
20180424140315 65 100 0.0 0.0 0.00 0.00 0.00 26 1017.5
20180424134810 64 100 0.0 0.0 0.00 0.00 0.00 26 1017.4
20180424133310 64 101 0.0 0.0 0.00 0.00 0.00 27 1017.3
20180424131807 64 63 0.0 0.0 0.00 0.00 0.00 26 1017.2
20180424130309 64 70 0.0 0.0 0.00 0.00 0.00 26 1017.3
20180424124806 63 92 0.0 0.0 0.00 0.00 0.00 27 1017.2
20180424123305 64 96 0.0 0.0 0.00 0.00 0.00 26 1017.2
20180424121803 64 85 0.0 0.0 0.00 0.00 0.00 26 1017.2
20180424120302 64 108 0.0 0.0 0.00 0.00 0.00 26 1017.3
20180424114801 64 79 0.0 0.0 0.00 0.00 0.00 26 1017.2
20180424113301 63 80 0.0 0.0 0.00 0.00 0.00 26 1017.4
20180424111801 63 175 0.0 0.0 0.00 0.00 0.00 26 1017.7
20180424110300 63 91 0.0 0.0 0.00 0.00 0.00 25 1017.8
20180424104759 63 80 0.0 0.0 0.00 0.00 0.00 25 1017.7
20180424103258 63 89 0.0 0.0 0.00 0.00 0.00 25 1017.9
20180424101755 63 94 0.0 0.0 0.00 0.00 0.00 25 1018.0
20180424100252 63 113 0.0 0.0 0.00 0.00 0.00 25 1018.0
20180424094750 63 127 0.0 0.0 0.00 0.00 0.00 24 1018.2
20180424093249 63 93 0.0 0.0 0.00 0.00 0.00 24 1018.3
20180424091747 63 112 0.0 0.0 0.00 0.00 0.00 24 1018.5
20180424090251 63 65 0.0 0.0 0.00 0.00 0.00 24 1018.5
20180424084746 63 145 0.0 0.0 0.00 0.00 0.00 24 1018.5
20180424083242 63 90 0.0 0.0 0.00 0.00 0.00 24 1018.4
20180424081740 63 174 0.0 0.0 0.00 0.00 0.00 25 1018.9
20180424080241 63 129 0.0 0.0 0.00 0.00 0.00 26 1018.8
20180424074740 63 145 0.0 0.0 0.00 0.00 0.00 26 1019.0
20180424073240 62 113 0.0 0.0 0.00 0.00 0.00 27 1019.1
20180424071734 61 256 0.0 0.0 0.00 0.00 0.00 34 1019.1
20180424070230 62 64 0.0 0.0 0.00 0.00 0.00 29 1019.1
20180424064730 62 54 0.0 0.0 0.00 0.00 0.00 30 1019.2
20180424063224 62 46 0.0 0.0 0.00 0.00 0.00 31 1019.2
20180424061717 63 81 0.0 0.0 0.00 0.00 0.00 30 1019.1
20180424060212 63 11 0.0 0.0 0.00 0.00 0.00 30 1018.9
20180424054707 63 31 0.0 0.0 0.00 0.00 0.00 30 1019.1
20180424053208 64 72 0.0 0.0 0.00 0.00 0.00 30 1019.4
20180424051706 64 42 0.0 0.0 0.00 0.00 0.00 30 1019.2
20180424050207 63 79 0.0 0.0 0.00 0.00 0.00 32 1019.2
20180424044707 63 58 0.0 0.0 0.00 0.00 0.00 31 1019.4
20180424043205 64 34 0.0 0.0 0.00 0.00 0.00 30 1019.5
20180424041703 64 56 0.0 0.0 0.00 0.00 0.00 30 1019.5
20180424040200 64 41 0.0 0.0 0.00 0.00 0.00 30 1019.5
20180424034656 66 29 0.0 0.0 0.00 0.00 0.00 27 1019.3
20180424033151 67 37 0.0 0.0 0.00 0.00 0.00 25 1019.2
20180424031646 69 33 0.0 0.0 0.00 0.00 0.00 22 1019.2
20180424030146 70 94 0.0 0.0 0.00 0.00 0.00 21 1019.0
20180424024641 71 87 0.0 0.0 0.00 0.00 0.00 21 1018.8
20180424023133 72 79 0.0 0.0 0.00 0.00 0.00 19 1018.7
20180424021629 72 46 0.0 0.0 0.00 0.00 0.00 19 1018.7
20180424020125 73 98 0.0 0.0 0.00 0.00 0.00 18 1018.7
20180424014623 73 73 0.0 0.0 0.00 0.00 0.00 18 1018.8
20180424013115 74 71 0.0 0.0 0.00 0.00 0.00 17 1018.9
20180424011612 74 87 0.0 0.0 0.00 0.00 0.00 17 1019.1
20180424010105 74 79 0.0 0.0 0.00 0.00 0.00 17 1019.0
20180424004603 75 49 0.0 0.0 0.00 0.00 0.00 17 1019.3
20180424003056 75 82 0.0 0.0 0.00 0.00 0.00 17 1019.5
20180424001551 74 68 0.0 0.0 0.00 0.00 0.00 18 1019.6
20180424000047 71 22 0.0 0.0 0.00 0.00 0.00 31 1019.9
20180423234545 74 331 0.0 0.0 0.00 0.00 0.00 24 1020.1
20180423233040 75 77 0.0 0.0 0.00 0.00 0.00 18 1020.3
20180423231533 74 32 0.0 0.0 0.00 0.00 0.00 18 1020.4
20180423230030 74 51 0.0 0.0 0.00 0.00 0.00 18 1020.7
20180423224525 74 105 0.0 0.0 0.00 0.00 0.00 18 1021.0
20180423223021 73 67 0.0 0.0 0.00 0.00 0.00 19 1021.1
20180423221517 74 56 0.0 0.0 0.00 0.00 0.00 19 1021.2
20180423220011 73 64 0.0 0.0 0.00 0.00 0.00 20 1021.4
20180423214506 73 93 0.0 0.0 0.00 0.00 0.00 19 1021.4
20180423213007 72 56 0.0 0.0 0.00 0.00 0.00 21 1021.6
20180423211457 72 39 0.0 0.0 0.00 0.00 0.00 21 1021.5
20180423205958 72 37 0.0 0.0 0.00 0.00 0.00 22 1021.8